Change the Weather History Date:

Saturday, May 3, 2014

  Actual Average Record
Temperature  
Mean Temperature 54 °F -  
Max Temperature 63 °F 64 °F 87 °F (2001)
Min Temperature 46 °F 39 °F 23 °F (1957)
Degree Days  
Heating Degree Days 12    
Growing Degree Days 4 (Base 50)    
Moisture  
Dew Point 42 °F    
Average Humidity 69    
Maximum Humidity 89    
Minimum Humidity 46    
Precipitation  
Precipitation 0.08 in - - ()
Sea Level Pressure  
Sea Level Pressure 29.77 in    
Wind  
Wind Speed 6 mph (South)    
Max Wind Speed 12 mph    
Max Gust Speed 30 mph    
Visibility 9 miles    
Events Rain , Thunderstorm    
Averages and records for this station are not official NWS values.
T = Trace of Precipitation, MM = Missing Value Source: NWS Daily Summary

Daily Weather History Graph

Daily Weather History Graph

Search for Another Location

Airport or City:

Trip Planner

Search our weather history database for the weather conditions in past years. The results will help you decide how hot, cold, wet, or windy it might be!

Date:

Astronomy

May. 03, 2014 Rise Set
Actual Time 6:02 AM EDT 8:13 PM EDT
Civil Twilight 5:32 AM EDT 8:44 PM EDT
Nautical Twilight 4:53 AM EDT 9:22 PM EDT
Astronomical Twilight 4:12 AM EDT 10:04 PM EDT
Moon 9:29 AM EDT (5/3) No Moon Set
Length of Visible Light 15h 12m
Length of Day
14h 10m
Waxing Crescent, 19% of the Moon is Illuminated
May 3
Waxing Crescent
May 6
First Quarter
May 14
Full
May 21
Last Quarter
May 28
New

Hourly Weather History & Observations

Time (EDT) Temp. Dew Point Humidity Pressure Visibility Wind Dir Wind Speed Gust Speed Precip Events Conditions
12:54 AM 50.0 °F 43.0 °F 77% 29.85 in 10.0 mi SSE 4.6 mph - N/A   Overcast
1:54 AM 48.0 °F 43.0 °F 83% 29.84 in 10.0 mi SSE 5.8 mph - N/A   Overcast
2:54 AM 50.0 °F 41.0 °F 71% 29.83 in 10.0 mi ESE 6.9 mph - N/A   Overcast
3:54 AM 48.9 °F 42.1 °F 77% 29.84 in 10.0 mi SE 6.9 mph - N/A   Overcast
4:54 AM 48.9 °F 42.1 °F 77% 29.84 in 10.0 mi SSE 3.5 mph - N/A   Overcast
6:54 AM 46.9 °F 42.1 °F 83% 29.84 in 10.0 mi SSE 4.6 mph - N/A   Overcast
7:54 AM 48.9 °F 43.0 °F 80% 29.84 in 10.0 mi Variable 3.5 mph - N/A   Overcast
8:54 AM 52.0 °F 41.0 °F 66% 29.83 in 10.0 mi SSE 6.9 mph - N/A   Overcast
9:54 AM 54.0 °F 39.9 °F 59% 29.81 in 10.0 mi South 9.2 mph - N/A   Overcast
10:54 AM 55.0 °F 39.9 °F 57% 29.81 in 10.0 mi SSW 8.1 mph - N/A   Mostly Cloudy
11:54 AM 57.0 °F 39.9 °F 53% 29.78 in 10.0 mi Variable 5.8 mph - N/A   Overcast
12:54 PM 57.0 °F 39.0 °F 51% 29.76 in 10.0 mi South 9.2 mph - N/A   Overcast
1:54 PM 57.9 °F 37.9 °F 47% 29.75 in 10.0 mi WSW 8.1 mph - N/A   Overcast
2:54 PM 59.0 °F 39.0 °F 48% 29.73 in 10.0 mi Variable 5.8 mph - N/A   Overcast
4:54 PM 59.0 °F 43.0 °F 55% 29.70 in 10.0 mi Calm Calm - 0.00 in   Mostly Cloudy
5:54 PM 61.0 °F 39.9 °F 46% 29.68 in 10.0 mi South 8.1 mph 19.6 mph N/A   Mostly Cloudy
6:54 PM 59.0 °F 42.1 °F 53% 29.70 in 10.0 mi SW 9.2 mph - N/A   Mostly Cloudy
7:03 PM 51.1 °F 42.1 °F 71% 29.70 in 2.0 mi WSW 8.1 mph 29.9 mph 0.03 in Rain , Thunderstorm Heavy Rain
7:18 PM 50.0 °F 44.1 °F 80% 29.70 in 2.5 mi Variable 5.8 mph - 0.05 in Rain Rain
7:29 PM 50.0 °F 45.0 °F 83% 29.70 in 5.0 mi SSE 6.9 mph - 0.06 in Rain Light Rain
7:54 PM 48.0 °F 45.0 °F 89% 29.74 in 10.0 mi SE 11.5 mph - 0.06 in   Overcast
8:54 PM 48.0 °F 44.1 °F 86% 29.74 in 10.0 mi ESE 6.9 mph - N/A   Mostly Cloudy
9:54 PM 50.0 °F 43.0 °F 77% 29.76 in 10.0 mi Variable 4.6 mph - 0.02 in   Overcast
10:54 PM 48.0 °F 39.9 °F 74% 29.78 in 10.0 mi West 8.1 mph 19.6 mph 0.00 in Rain Light Rain
11:54 PM 48.0 °F 39.0 °F 71% 29.78 in 10.0 mi Variable 6.9 mph 18.4 mph 0.00 in   Scattered Clouds